DW5542 Weather Reports


Display with metric or nautical units.
time (UTC)temp
F
wind
direction
speed
MPH
gust
MPH
rain 1hr
in
rain 24hr
in
rain mn
in
humidity
%
barometer
mb
20260510233045 62 255 0.0 0.0 0.00 0.01 0.00 68 1011.2
20260510231542 63 284 0.0 0.0 0.00 0.01 0.00 67 1011.1
20260510230041 64 323 0.0 2.0 0.00 0.01 0.00 65 1011.1
20260510224542 64 329 0.0 7.0 0.00 0.01 0.00 63 1011.0
20260510223035 64 311 0.0 4.0 0.00 0.01 0.00 63 1011.0
20260510221533 64 311 0.0 2.0 0.00 0.01 0.00 64 1011.1
20260510220032 64 352 0.0 5.0 0.00 0.01 0.00 65 1011.0
20260510214529 65 323 0.0 4.0 0.00 0.01 0.01 64 1011.1
20260510213030 65 262 0.0 7.0 0.00 0.01 0.01 64 1010.8
20260510211528 65 285 0.0 6.0 0.00 0.01 0.01 62 1010.7
20260510210026 65 284 0.0 6.0 0.00 0.01 0.01 63 1010.6
20260510204526 65 292 0.0 1.0 0.00 0.01 0.01 63 1010.4
20260510203026 65 293 0.0 3.0 0.00 0.01 0.01 63 1010.3
20260510201524 65 322 0.0 0.0 0.00 0.01 0.01 65 1010.1
20260510200023 65 323 0.0 3.0 0.00 0.01 0.01 66 1009.9
20260510194524 66 347 0.0 2.0 0.00 0.01 0.01 66 1009.9
20260510193021 66 294 0.0 3.0 0.00 0.01 0.01 66 1009.7
20260510191521 67 291 0.0 2.0 0.00 0.01 0.01 64 1009.5
20260510190020 68 323 0.0 1.0 0.00 0.01 0.01 60 1009.3
20260510184521 69 350 0.0 6.0 0.00 0.01 0.01 58 1009.4
20260510183021 71 347 0.0 2.0 0.01 0.01 0.01 65 1009.3
20260510181518 71 6 0.0 0.0 0.01 0.01 0.01 76 1009.1
20260510180017 71 263 0.0 1.0 0.01 0.01 0.01 76 1008.8
20260510174517 71 289 0.0 0.0 0.01 0.01 0.01 79 1008.7
20260510173016 69 26 0.0 0.0 0.00 0.00 0.00 81 1008.6
20260510171516 70 211 0.0 0.0 0.00 0.00 0.00 78 1008.4
20260510170015 71 149 0.0 0.0 0.00 0.00 0.00 78 1008.3
20260510164513 70 218 0.0 3.0 0.00 0.00 0.00 77 1008.4
20260510163014 71 186 0.0 1.0 0.00 0.00 0.00 76 1008.3
20260510161511 71 168 0.0 7.0 0.00 0.00 0.00 75 1008.4
20260510160010 71 176 0.0 11.0 0.00 0.00 0.00 74 1008.6
20260510154508 72 201 0.0 7.0 0.00 0.00 0.00 69 1008.4
20260510153008 72 157 1.0 10.0 0.00 0.00 0.00 63 1008.4
20260510151507 72 176 0.0 7.0 0.00 0.00 0.00 59 1008.6
20260510150006 72 160 1.0 12.0 0.00 0.00 0.00 67 1008.7
20260510144502 72 176 2.0 12.0 0.00 0.00 0.00 65 1008.9
20260510143115 73 169 3.0 11.0 0.00 0.00 0.00 53 1009.1
20260510141604 73 170 0.0 9.0 0.00 0.00 0.00 56 1009.2
20260510140055 72 18 1.0 13.0 0.00 0.00 0.00 59 1009.4
20260510134607 72 176 3.0 10.0 0.00 0.00 0.00 57 1009.7
20260510133052 72 96 4.0 11.0 0.00 0.00 0.00 55 1009.9
20260510131550 71 218 0.0 9.0 0.00 0.00 0.00 60 1010.1
20260510130048 72 240 1.0 11.0 0.00 0.00 0.00 60 1010.3
20260510124554 73 243 1.0 5.0 0.00 0.06 0.00 58 1010.3
20260510123045 72 200 0.0 5.0 0.00 0.06 0.00 61 1010.4
20260510121542 71 157 0.0 9.0 0.00 0.06 0.00 60 1010.6
20260510120041 72 240 0.0 4.0 0.00 0.06 0.00 58 1010.9
20260510114540 71 169 0.0 8.0 0.00 0.17 0.00 59 1011.1
20260510113037 71 156 0.0 9.0 0.00 0.17 0.00 61 1011.2
20260510111551 72 171 0.0 4.0 0.00 0.17 0.00 58 1011.4
20260510110033 73 245 0.0 3.0 0.00 0.17 0.00 52 1011.4
20260510104529 71 224 0.0 2.0 0.00 0.25 0.00 55 1011.5
20260510103029 72 63 0.0 0.0 0.00 0.25 0.00 57 1011.8
20260510101523 69 127 0.0 0.0 0.00 0.25 0.00 61 1012.0
20260510100022 69 259 0.0 4.0 0.00 0.25 0.00 62 1012.1
20260510094529 68 352 0.0 8.0 0.00 0.41 0.00 63 1012.3
20260510093017 68 357 0.0 9.0 0.00 0.41 0.00 62 1012.4
20260510091520 67 331 0.0 4.0 0.00 0.41 0.00 65 1012.3
20260510090011 65 10 0.0 7.0 0.00 0.41 0.00 72 1012.4
20260510084506 64 263 0.0 7.0 0.00 0.52 0.00 78 1012.5
20260510083002 63 264 0.0 0.0 0.00 0.52 0.00 80 1012.6
20260510081628 62 262 0.0 0.0 0.00 0.52 0.00 85 1012.6
20260510080057 61 323 0.0 0.0 0.00 0.52 0.00 87 1012.6
20260510074554 60 302 0.0 0.0 0.00 0.52 0.00 88 1012.8
20260510073049 59 323 0.0 0.0 0.00 0.52 0.00 89 1012.7
20260510071548 58 328 0.0 0.0 0.00 0.52 0.00 90 1012.7
20260510070048 58 342 0.0 2.0 0.00 0.52 0.00 92 1012.6
20260510064546 57 346 0.0 0.0 0.00 0.52 0.00 93 1012.5
20260510063045 56 324 0.0 0.0 0.00 0.52 0.00 94 1012.3
20260510061545 55 324 0.0 0.0 0.00 0.52 0.00 94 1012.2
20260510060051 54 325 0.0 0.0 0.00 0.52 0.00 94 1012.1
20260510054544 53 324 0.0 0.0 0.00 0.52 0.00 94 1011.9
20260510053043 53 324 0.0 0.0 0.00 0.52 0.00 94 1011.8
20260510051557 0 0.0 0.0 0.00 0.52 0.00 1011.5
20260510050040 0 0.0 0.0 0.00 0.52 0.00 1011.4
20260510044534 0 0.0 0.0 0.00 0.52 0.00 1011.4
20260510043027 0 0.0 0.0 0.00 0.52 0.00 1011.4
20260510041528 0 0.0 0.0 0.00 0.52 0.00 1011.4
20260510040020 53 274 0.0 0.0 0.00 0.52 0.00 94 1011.3
20260510034519 54 31 0.0 0.0 0.00 0.52 0.00 94 1011.3
20260510033018 54 31 0.0 0.0 0.00 0.52 0.00 94 1011.2
20260510031517 54 11 0.0 0.0 0.00 0.52 0.00 93 1011.2
20260510030014 54 12 0.0 0.0 0.00 0.52 0.00 93 1011.2
20260510024514 54 11 0.0 0.0 0.00 0.52 0.00 94 1011.3
20260510023030 55 12 0.0 0.0 0.00 0.52 0.00 94 1011.4
20260510021511 55 334 0.0 0.0 0.00 0.52 0.00 94 1011.4
20260510020010 55 333 0.0 0.0 0.00 0.52 0.00 93 1011.4
20260510014507 55 333 0.0 0.0 0.00 0.52 0.00 94 1011.3
20260510013012 55 333 0.0 0.0 0.00 0.52 0.00 94 1011.4
20260510011512 56 333 0.0 0.0 0.00 0.52 0.00 94 1011.4
20260510010010 56 333 0.0 0.0 0.00 0.52 0.00 94 1011.5
20260510004500 56 333 0.0 0.0 0.00 0.52 0.00 94 1011.8
20260510003107 56 333 0.0 0.0 0.00 0.52 0.00 93 1011.9
20260510001557 56 334 0.0 0.0 0.00 0.52 0.00 93 1012.0
20260510000054 57 320 0.0 0.0 0.00 0.52 0.00 93 1012.0
20260509234556 57 320 0.0 0.0 0.00 0.52 0.00 93 1012.1